Theta_e
338 333 330 324 314 312 310 310 315 315 322 331 338 337 336 337 337 327 357 363 362 363 364 360 365 365 365 365 365 363 362 361 361 362 362 362 363 363 364 364 364 364 363 363 362 360 360 359 360
333 325 325 321 308 307 309 312 312 317 322 328 335 338 335 335 349 353 355 364 362 364 362 360 364 365 365 364 364 363 362 361 361 362 362 363 364 364 363 364 364 363 363 362 361 361 361 360 360
327 325 315 317 312 307 308 313 313 318 324 323 330 339 339 337 351 352 361 365 365 364 362 364 364 364 364 364 363 363 363 362 362 363 362 362 363 364 364 364 364 362 361 361 361 361 360 360 359
322 320 318 312 310 310 310 313 315 317 322 327 333 331 339 348 349 355 359 362 362 362 365 363 364 363 362 363 363 363 364 363 363 363 362 363 362 363 363 363 363 361 360 360 361 361 360 359 359
320 317 310 311 308 309 311 314 317 316 321 323 329 324 328 339 347 354 355 357 357 359 365 361 363 362 361 361 362 362 362 364 364 363 363 363 363 363 362 363 362 361 359 360 360 361 360 357 354
313 313 303 306 308 309 311 314 316 317 320 324 325 320 319 335 339 345 353 356 358 359 364 364 362 362 361 360 361 362 362 362 363 364 363 363 363 363 363 363 362 362 361 360 359 359 359 356 352
311 308 303 306 306 306 307 314 312 315 315 315 325 316 318 323 334 339 345 349 354 357 360 366 363 363 361 360 360 360 361 362 363 363 363 363 362 362 363 363 363 362 361 360 359 357 355 353 350
313 310 305 307 306 306 309 311 314 312 311 318 319 314 315 319 326 334 338 341 345 346 350 355 361 363 364 361 360 359 359 360 361 362 362 362 362 362 362 361 361 362 361 360 358 355 353 352 351
314 307 303 305 305 308 312 310 313 314 313 314 316 316 318 320 323 324 328 332 337 339 344 347 351 352 358 358 363 360 359 359 359 360 360 360 356 356 356 356 360 362 361 360 357 356 354 352 351
311 308 307 310 311 309 310 310 311 311 311 312 314 317 319 320 320 320 320 320 323 327 335 343 349 351 353 352 365 366 361 357 354 353 355 356 352 354 353 355 361 362 361 360 358 357 354 350 343
311 309 309 309 310 311 310 309 311 310 309 312 311 313 316 317 319 319 319 320 321 323 325 326 338 351 351 350 352 353 356 361 360 359 357 359 350 349 350 350 354 356 359 354 354 352 350 346 342
308 309 310 311 310 310 308 311 308 310 311 314 313 314 315 315 317 318 319 320 321 323 325 327 328 332 343 347 346 349 349 351 354 359 364 360 354 352 349 346 350 352 351 351 352 348 350 347 346
308 308 309 310 310 309 310 308 308 309 312 313 314 315 315 316 316 318 319 321 323 325 328 329 333 335 337 344 346 347 348 348 351 355 362 359 356 355 356 350 347 347 348 346 346 345 349 347 348
309 308 308 309 309 310 307 308 308 310 313 312 313 314 315 315 316 318 319 321 325 327 330 333 334 337 335 341 351 351 352 347 348 350 354 362 359 360 353 351 347 347 346 345 344 345 345 347 347
309 306 309 309 309 308 309 305 306 312 312 311 313 314 315 316 317 317 320 323 326 329 333 335 335 336 339 338 339 344 351 346 342 345 357 361 364 364 362 352 350 349 349 349 349 348 348 346 347
306 307 303 309 309 308 307 301 308 313 311 311 311 312 313 315 316 319 323 323 327 330 332 335 333 336 340 341 340 337 338 342 341 343 347 359 363 363 364 356 354 354 354 350 347 344 343 344 343
307 301 302 303 309 306 306 303 308 311 310 309 310 311 312 313 315 320 323 323 326 328 328 329 331 332 335 340 340 342 343 341 342 344 344 354 361 361 359 358 358 360 350 350 349 346 347 344 344
301 301 303 302 306 307 305 304 308 310 309 309 310 310 310 312 314 321 322 323 325 326 328 329 329 331 335 333 342 336 334 336 340 340 343 353 350 360 360 357 360 359 352 352 349 353 348 345 343
304 303 302 305 308 306 304 304 306 309 309 308 309 309 310 312 317 322 322 323 324 323 325 327 327 330 328 323 326 332 330 330 332 337 352 355 351 354 362 358 358 358 354 353 352 348 352 344 347
304 302 303 306 307 305 304 303 307 309 309 308 307 309 310 314 316 319 321 322 321 320 321 325 327 329 327 324 327 327 331 334 340 338 349 355 358 359 359 359 355 360 354 357 355 355 344 347 345
304 302 302 302 304 305 303 301 304 306 307 308 309 310 312 313 315 319 320 320 321 319 319 322 326 328 329 329 327 328 328 336 333 338 339 349 357 359 361 359 358 360 359 351 356 354 353 340 341
300 304 303 301 299 295 303 292 301 304 305 306 308 310 311 314 316 317 317 319 319 319 321 321 324 326 327 330 329 328 323 320 325 332 339 347 353 357 361 361 357 360 357 358 356 353 350 349 343
301 304 302 301 299 299 299 296 300 304 302 304 308 309 310 314 316 316 317 318 319 320 320 322 324 326 326 327 327 323 326 322 322 324 340 347 349 353 352 358 359 359 354 357 358 355 351 348 343
305 303 303 303 301 293 298 297 297 300 302 304 306 308 311 313 314 316 318 319 319 319 320 321 323 325 326 324 324 325 325 325 322 325 326 331 340 344 354 354 356 359 356 356 355 357 355 351 347
304 300 294 292 292 291 299 295 298 303 305 306 306 307 310 312 313 313 314 314 318 318 319 320 321 322 323 322 323 323 326 325 326 327 324 333 334 338 347 358 357 354 358 358 356 356 355 349 349
300 299 293 286 288 291 298 292 297 305 307 307 308 310 310 311 312 312 314 315 316 317 319 320 320 319 320 320 321 323 323 320 322 325 326 326 332 337 348 350 356 357 357 358 358 349 349 354 351
299 296 302 296 296 291 295 299 303 304 305 307 307 308 309 309 312 312 314 316 316 317 318 318 318 318 318 319 323 324 324 325 323 326 329 325 334 336 344 345 351 354 356 357 356 351 353 354 356
302 304 295 297 286 286 292 293 294 300 302 304 306 307 308 308 311 312 312 315 316 316 318 318 317 316 316 317 317 319 321 322 322 324 324 329 332 339 345 348 348 351 354 354 355 353 355 355 349
300 299 299 299 295 288 286 291 303 302 304 304 307 308 309 305 309 310 313 314 314 315 315 315 315 315 315 316 317 318 318 320 321 321 322 326 331 336 342 345 346 347 351 353 353 354 349 349 350
301 298 298 294 290 293 292 292 304 304 304 305 306 308 309 307 310 311 310 312 313 313 314 314 314 313 314 315 315 317 318 318 321 322 322 325 328 332 339 342 343 344 346 350 349 348 344 345 344
Wind_Speed
14 14 10 7 9 9 5 7 3 4 9 9 4 15 20 22 22 4 10 13 4 16 15 14 10 8 7 9 10 12 11 12 11 10 11 11 10 10 10 9 9 9 10 10 10 10 9 9 9
15 5 8 9 10 10 4 2 7 10 8 2 2 9 19 19 19 15 10 9 9 15 12 13 12 11 9 9 10 11 12 11 12 11 10 10 10 10 10 8 9 10 9 9 9 9 8 7 7
12 8 6 8 10 9 10 9 6 5 3 4 4 13 14 11 19 6 12 10 14 11 12 13 11 11 10 9 10 11 11 11 11 12 11 10 9 9 9 8 8 9 10 8 8 7 7 6 6
3 6 8 9 15 14 14 9 6 2 4 5 10 15 13 12 10 11 8 11 12 14 15 12 9 8 9 9 9 10 11 11 11 12 12 11 10 8 8 8 8 8 9 9 8 7 6 5 4
9 8 11 10 12 8 7 9 7 2 4 4 8 15 12 13 9 10 8 6 9 12 18 13 9 8 8 8 8 8 9 9 10 11 12 11 10 10 8 8 8 8 8 9 9 8 6 5 4
8 4 10 13 5 4 2 9 8 5 5 7 13 11 12 8 9 9 11 8 11 9 15 12 10 8 7 7 7 8 8 9 9 10 10 11 10 10 10 9 8 8 8 9 9 8 8 6 5
13 7 15 20 15 7 2 8 8 6 8 6 7 9 10 10 7 5 10 8 9 10 9 12 12 10 8 7 7 7 8 8 9 9 10 10 10 10 10 10 9 9 9 8 8 8 8 7 6
10 7 8 7 11 10 4 5 6 8 6 3 8 4 8 7 7 1 4 3 12 8 11 9 6 15 11 12 11 8 7 8 8 9 9 9 9 10 10 9 9 10 9 9 8 8 8 8 7
10 9 10 5 3 10 7 6 6 4 1 5 5 9 8 4 4 8 6 4 2 4 7 3 4 7 3 8 14 12 9 8 8 10 10 9 10 13 14 13 13 12 10 9 8 8 8 8 9
11 9 11 8 8 3 1 7 4 6 6 8 9 9 5 4 2 4 4 7 7 9 10 8 6 7 3 2 14 9 11 9 10 10 11 10 12 11 12 13 15 13 12 10 9 9 9 9 9
5 7 7 4 5 5 7 7 1 9 8 3 4 3 3 3 5 9 8 8 8 8 6 11 9 4 7 8 6 6 7 9 8 11 11 10 10 10 9 8 10 10 13 9 11 10 9 12 10
7 3 1 6 3 8 8 3 9 7 4 9 1 3 6 3 3 5 5 7 6 8 7 9 8 7 10 7 7 7 7 6 7 11 11 9 8 8 9 8 11 11 10 13 12 10 12 13 13
3 3 4 4 7 4 3 9 9 7 5 2 6 7 8 5 4 5 3 3 5 8 10 11 11 8 7 9 8 8 8 8 8 7 10 8 9 8 5 8 10 10 11 12 12 12 10 12 8
4 3 3 3 2 5 8 8 6 11 7 7 9 11 9 9 8 6 7 8 8 8 9 10 10 10 10 8 11 8 8 11 9 8 9 16 7 7 10 7 5 10 10 11 11 11 10 9 10
3 11 11 10 2 10 3 14 19 12 4 8 13 12 13 11 8 9 6 7 9 9 9 11 10 10 9 11 11 10 10 12 11 11 12 11 12 10 11 11 10 8 8 12 10 10 9 9 10
8 7 9 15 6 2 7 13 13 10 8 12 14 13 15 15 8 6 7 6 6 8 8 9 10 12 11 11 10 10 12 11 12 10 11 13 13 11 9 11 7 8 8 10 10 10 10 10 10
12 7 7 7 8 3 11 15 13 11 11 12 13 15 15 16 6 3 6 3 4 6 8 9 10 12 12 10 9 10 13 12 12 11 11 12 16 14 10 9 10 8 4 12 9 11 10 9 10
13 13 11 12 3 8 13 16 16 14 15 16 16 16 11 11 6 5 4 0 3 5 6 8 9 12 12 9 7 8 10 11 12 12 12 12 11 14 9 9 10 10 7 8 10 10 10 10 10
11 13 15 15 9 11 15 16 17 17 16 17 15 8 6 6 6 8 5 4 4 4 5 7 9 11 10 10 10 10 11 10 11 12 13 15 12 14 13 10 11 10 11 10 7 4 8 9 10
12 16 17 13 10 11 17 22 20 20 16 11 8 9 7 8 8 10 7 6 5 2 2 5 7 9 9 9 9 9 11 11 14 10 11 14 16 11 10 12 10 12 11 12 11 9 3 7 8
14 15 15 16 15 18 23 23 18 6 3 7 8 7 8 7 10 11 9 7 5 3 0 3 5 8 9 11 8 9 10 8 9 11 11 12 16 15 13 13 12 13 12 11 12 11 11 7 3
13 8 12 16 16 16 17 20 19 14 11 10 10 12 10 10 6 6 5 8 4 5 4 4 5 7 9 11 10 10 10 10 12 13 13 12 14 18 14 13 13 14 11 10 10 11 12 11 12
13 12 15 19 19 20 19 14 13 7 12 10 12 10 5 7 11 13 10 8 5 7 7 7 7 8 9 10 10 10 10 9 10 11 16 15 14 12 17 14 15 14 12 11 12 11 12 12 11
11 14 17 20 17 12 19 8 10 11 12 10 8 8 9 12 11 10 10 9 9 10 6 7 12 10 11 10 12 12 12 12 11 12 12 12 13 13 8 13 14 13 13 12 10 12 13 13 11
12 14 10 8 9 11 11 7 14 16 12 11 9 14 10 10 9 7 10 9 12 8 8 9 13 14 13 13 13 13 13 13 14 12 11 13 11 12 12 15 12 13 14 13 12 12 12 12 11
16 12 8 14 14 18 22 21 15 5 6 5 9 10 10 13 11 10 8 9 12 13 12 12 15 16 15 15 15 13 14 11 11 12 11 11 13 12 13 9 13 15 15 14 13 11 11 13 12
7 8 8 12 16 18 16 20 14 12 5 9 13 9 10 7 16 9 10 10 12 10 11 12 15 16 16 16 13 13 13 14 13 14 12 12 13 13 16 15 14 15 15 14 15 13 13 11 11
14 10 9 6 7 15 15 24 19 9 14 9 12 15 17 23 36 6 10 13 12 12 12 12 14 17 17 17 16 13 14 15 15 13 14 14 14 17 16 16 13 13 14 16 15 14 12 12 10
7 13 15 15 12 14 20 12 21 26 24 16 19 11 10 9 18 21 15 13 14 15 16 13 14 17 17 16 16 16 15 16 15 15 15 14 15 16 17 16 15 14 15 16 15 16 12 13 12
9 12 15 10 17 17 18 23 21 23 23 21 20 21 13 9 21 18 15 18 16 13 17 15 15 17 17 16 16 17 17 17 16 15 16 15 16 16 18 17 17 15 16 15 15 15 12 12 13
Wind_Direction
270 232 240 249 248 232 218 103 302 37 123 356 349 2 54 78 28 71 79 82 105 112 121 138 118 117 116 126 135 138 141 148 153 152 152 153 155 149 140 133 129 134 138 138 139 139 136 133 126
289 253 245 280 251 217 119 50 32 34 32 299 24 332 59 47 70 75 78 71 118 114 139 134 127 130 134 131 129 137 142 151 154 151 155 160 158 154 148 142 136 141 147 148 151 148 146 143 133
257 267 275 273 254 20 69 39 11 82 32 348 113 30 15 36 51 44 75 93 101 131 141 111 127 128 131 130 134 135 142 152 156 152 156 166 164 158 154 149 144 149 153 160 163 161 154 149 143
248 200 241 229 293 56 10 16 332 116 108 8 90 87 75 29 52 60 65 109 147 132 119 116 108 116 122 131 138 136 142 150 154 156 157 166 167 166 161 158 151 158 163 171 174 172 166 160 156
214 262 259 207 180 350 13 339 319 87 1 144 103 93 74 90 82 96 104 94 119 119 107 132 120 116 124 132 140 144 148 148 154 159 164 169 171 167 171 169 165 167 172 176 182 177 177 180 183
230 274 281 258 159 148 17 318 326 50 69 55 102 89 78 66 57 79 74 74 86 85 115 131 126 124 129 139 147 151 158 159 161 166 171 173 171 173 174 174 177 175 177 178 186 184 188 190 202
260 212 240 261 118 190 345 315 354 6 54 17 358 128 95 49 51 45 120 111 111 127 121 139 153 146 151 156 159 166 170 173 170 173 177 179 180 179 177 178 178 180 182 186 185 189 190 200 206
288 273 275 267 139 129 129 222 333 358 60 139 313 155 116 49 335 68 89 112 137 148 125 150 160 167 176 167 170 176 186 187 187 185 187 187 186 188 186 178 185 184 189 193 189 192 195 202 214
229 238 229 132 275 104 141 252 119 264 130 48 55 30 48 85 14 7 343 232 50 54 145 181 164 151 193 189 159 163 183 198 196 198 200 189 224 202 203 205 178 185 192 197 200 201 207 210 214
254 267 69 35 16 350 351 283 45 253 180 154 130 114 114 76 40 94 356 346 11 359 357 15 101 19 241 272 143 182 185 203 209 210 204 217 221 229 210 201 173 181 189 201 205 211 216 222 238
337 24 88 133 18 304 313 270 211 270 248 140 33 45 68 76 95 346 4 41 1 27 12 357 359 170 282 291 193 224 193 185 196 216 217 210 226 225 203 209 181 196 192 209 205 209 226 230 239
139 43 334 112 160 261 254 327 265 270 33 70 286 309 283 311 31 91 333 334 358 359 351 340 4 346 332 298 276 217 264 223 212 192 200 234 215 226 231 220 198 201 206 213 214 215 220 231 237
351 130 212 176 216 267 281 240 292 237 173 190 239 240 259 284 306 301 305 314 351 328 346 327 352 330 315 301 272 280 272 265 230 226 176 218 231 230 229 238 239 217 207 211 218 230 212 215 232
60 282 193 232 58 220 266 254 207 262 169 233 257 267 278 284 293 299 287 337 331 341 334 341 324 317 306 304 298 273 252 267 259 236 233 188 219 209 234 248 272 255 236 224 219 225 219 216 221
215 248 193 213 271 287 287 264 246 244 121 270 279 263 261 266 284 292 346 325 327 331 354 345 324 334 317 297 283 276 244 258 246 254 218 208 192 229 230 223 228 244 249 243 240 226 210 224 224
260 246 262 141 153 174 249 285 297 149 205 258 263 271 273 271 258 313 324 314 351 349 1 1 347 344 336 310 287 282 280 247 253 238 251 204 197 218 227 240 230 225 233 235 235 227 227 214 231
185 327 318 297 173 245 263 288 297 281 253 258 260 265 264 265 211 192 286 334 32 43 21 22 13 4 340 315 294 280 275 268 265 255 235 230 200 203 213 234 240 236 219 241 217 235 223 221 227
335 312 310 297 292 293 294 285 288 284 282 269 262 265 272 267 217 124 261 222 96 66 43 18 13 8 343 338 297 269 265 265 249 260 257 238 225 186 195 225 240 237 230 246 235 228 224 232 219
301 291 289 291 291 300 283 286 285 281 279 275 273 287 257 241 190 161 199 205 160 79 34 20 9 9 351 356 339 338 305 266 248 250 276 287 230 204 194 220 232 224 225 232 260 230 236 241 244
287 283 280 290 298 301 295 290 285 271 258 268 301 269 246 203 201 186 194 202 213 150 48 32 7 6 357 356 333 335 322 293 300 263 225 237 271 220 218 216 216 219 219 221 230 248 213 232 239
275 292 303 312 318 286 269 271 273 289 234 255 266 258 293 253 226 176 205 210 248 229 281 24 4 354 339 346 336 344 324 306 266 271 265 224 229 243 207 212 221 231 221 213 216 221 213 218 299
291 352 308 295 294 291 320 292 284 270 229 224 237 240 228 223 221 266 229 223 231 279 307 342 345 339 340 337 329 342 316 322 335 306 294 298 228 210 216 213 215 232 234 218 215 214 221 224 224
298 331 295 286 277 280 275 262 278 197 245 244 256 265 283 236 217 213 221 219 223 279 291 326 324 319 329 328 323 319 318 318 315 310 311 305 287 275 194 196 218 226 229 225 222 206 207 216 236
301 280 286 274 257 264 278 305 288 289 340 330 304 270 237 230 235 240 244 242 240 251 317 316 318 312 319 317 315 313 306 307 306 306 302 289 285 272 230 218 216 222 228 224 221 218 198 217 225
304 304 316 290 290 253 280 261 268 277 282 288 319 292 260 240 250 277 256 271 292 289 306 324 308 309 310 313 311 309 305 300 290 281 281 299 287 274 262 210 214 218 223 219 219 212 205 205 217
300 291 273 287 297 303 309 285 284 178 225 309 260 268 268 270 264 284 306 316 317 327 327 323 304 303 307 306 305 307 303 293 295 281 288 296 297 296 293 265 209 217 219 215 218 213 217 202 207
280 258 346 309 295 276 279 278 292 342 76 336 327 319 302 12 300 325 285 312 319 308 301 296 303 298 301 304 298 292 293 288 293 292 282 275 274 271 271 272 223 211 219 216 218 220 202 210 206
241 303 300 266 285 280 292 303 283 21 354 311 329 13 5 359 315 341 331 314 313 313 294 294 310 307 306 301 298 298 302 292 287 287 284 278 278 281 276 276 275 229 222 219 216 227 212 198 207
265 233 235 255 278 289 298 280 329 326 326 343 323 340 316 309 305 331 302 304 310 302 310 314 306 300 302 301 301 297 297 295 289 286 285 280 278 275 270 258 255 239 223 222 217 225 220 202 208
293 290 286 277 284 274 281 281 314 308 320 326 327 330 339 322 304 270 320 319 321 317 298 308 309 300 296 296 300 301 298 291 284 281 286 279 276 277 271 266 251 240 230 225 216 214 223 215 216